Volver al catálogo

STARLINK-5550

ActivoComunicacionesSSO
NORAD 56361·PAYLOAD·🇺🇸 United States

Lanzado Apr 27, 2023 desde Vandenberg Space Force Base

Loading…

Próximos Pases (próximas 24 horas)

TLE

ActualizadoSource: CelesTrak SupGP

Época: Sep 14, 2026, 20:58 UTC

1 56361C 23058AW  26257.87409722  .00053697  00000+0  32664-2 0  2579
2 56361  97.2857 252.0323 0001412  74.6653 298.4980 15.10500944    17

Sigue STARLINK-5550 en tiempo real con AllMySat

Download on the App Store